RH
24 41 40 34 43 45 50 59 49 43 52 54 58 63 66 67 58 41 38 46 45 45 54 55 45 37 30 24 24 26 35 49 57 55 51 50 49 45 45 44 41 34 26 24 26 28 31 32 34 35 37 40 44 48 50 50 48 46 46 44 42 41 39 36 31 27 23 21 20 19 20 21 22 23 25 28 31 33 34 44 59 61 58 54 46 45
33 37 31 39 51 50 56 67 66 60 59 63 63 61 62 61 50 32 27 38 40 39 47 49 40 33 28 25 32 44 53 57 57 56 52 49 49 46 45 41 33 27 25 25 28 31 33 35 36 38 43 47 52 55 54 52 49 47 45 42 38 32 28 25 21 20 19 19 19 18 19 20 21 22 24 29 32 36 44 53 60 60 59 58 56 64
43 30 21 40 53 59 74 76 65 59 54 56 56 52 47 42 36 30 34 45 45 37 33 36 40 35 30 38 51 62 64 61 54 52 52 49 48 47 44 37 28 24 25 27 30 34 36 38 40 45 51 55 57 57 55 53 49 45 41 35 30 25 23 23 22 22 22 22 22 22 23 22 22 21 24 31 37 43 54 61 63 63 65 65 68 75
35 28 32 51 58 60 67 62 55 51 46 42 40 42 41 35 31 29 34 40 41 40 36 42 46 36 40 54 60 62 60 58 55 50 50 47 47 47 40 30 24 25 27 30 34 37 40 44 49 54 58 59 59 58 56 54 49 42 36 30 27 27 27 27 27 26 26 26 26 26 26 25 24 23 26 34 44 57 67 70 68 66 65 64 65 69
28 33 44 56 62 57 44 43 46 38 39 44 39 39 38 33 32 29 33 37 38 44 45 46 38 29 48 64 60 59 58 56 55 53 51 50 48 42 32 26 26 27 30 34 39 43 49 54 58 62 62 62 62 61 58 54 48 39 34 32 31 31 31 30 31 31 32 32 32 32 31 30 31 31 36 44 55 65 70 71 68 65 64 65 69 74
37 44 45 40 45 47 30 26 36 31 35 44 39 37 34 31 37 39 43 45 40 41 41 42 42 38 42 52 64 70 64 61 56 51 50 46 40 32 27 28 29 32 36 41 46 52 59 61 64 66 64 66 66 62 59 54 46 39 35 35 33 34 34 33 35 35 37 38 39 40 41 41 43 46 50 55 63 68 69 70 72 74 75 75 77 80
40 41 42 35 32 37 30 23 30 33 35 41 41 42 41 42 49 47 46 50 45 40 38 37 47 50 32 37 72 81 68 65 54 45 44 36 31 28 27 31 33 38 43 46 51 57 63 65 67 68 66 66 65 61 59 52 44 39 36 36 35 36 36 36 38 40 42 44 45 47 49 51 54 58 60 61 64 69 74 78 79 81 80 79 81 83
38 36 42 44 34 35 35 26 28 33 33 38 44 48 49 48 49 47 46 53 52 46 45 41 44 53 45 50 82 83 68 69 56 45 42 32 30 29 29 35 38 41 45 49 57 61 65 68 67 66 64 64 63 62 58 49 40 37 36 37 38 38 38 40 42 45 47 50 52 54 56 57 59 61 63 63 65 70 77 83 82 80 77 77 82 85
37 32 38 41 38 41 34 22 31 39 32 37 47 49 50 48 47 48 50 58 62 52 45 42 42 52 51 52 74 77 69 73 65 52 45 35 31 30 33 39 39 42 50 55 63 66 66 66 63 63 64 63 63 63 56 44 37 37 38 39 40 40 42 44 47 49 53 55 57 59 60 61 62 63 63 63 67 72 75 78 78 76 74 71 71 78
31 34 43 38 38 44 37 32 44 44 33 38 46 42 42 43 45 53 56 57 60 57 50 43 40 45 40 37 61 75 72 77 74 62 52 38 31 34 37 41 42 47 56 63 67 67 64 62 61 63 64 61 62 60 50 40 36 38 40 41 43 44 46 48 51 54 56 58 60 61 63 63 63 62 63 66 70 73 73 75 77 79 80 78 78 84
31 46 55 42 39 44 41 39 44 47 41 39 42 39 33 30 42 69 79 60 44 49 59 54 43 43 40 41 62 73 70 79 79 66 55 42 36 37 37 45 54 56 60 66 66 63 61 61 61 63 62 59 60 55 43 36 38 40 42 44 45 46 48 51 54 56 58 61 63 64 65 65 64 64 67 70 74 77 80 85 88 91 93 93 93 92
41 50 49 41 41 40 39 36 38 52 51 39 40 39 32 27 41 71 86 72 50 40 44 46 46 46 43 47 61 59 54 69 74 62 54 45 38 37 40 51 62 62 62 64 62 60 61 62 62 61 59 57 57 50 39 37 42 42 44 46 47 48 50 53 56 58 61 63 65 67 67 66 67 69 71 72 75 79 84 87 88 88 88 89 92 96
42 41 35 38 41 32 33 33 38 53 48 39 42 41 40 44 48 56 59 60 55 41 34 35 41 44 39 47 59 47 39 52 56 51 48 44 40 44 51 58 63 65 64 62 61 62 62 63 62 59 55 54 55 48 39 41 45 46 47 47 48 51 53 56 59 61 63 65 67 68 67 67 69 71 73 73 74 77 80 82 84 81 80 86 94 101
43 42 34 35 34 30 33 31 36 44 39 40 46 43 47 52 55 59 52 49 50 43 36 30 36 46 43 52 59 42 37 45 44 47 51 49 51 56 61 64 66 65 64 64 65 65 65 62 59 57 53 52 53 47 42 48 52 49 49 48 50 52 55 59 62 64 67 68 69 69 68 69 70 70 73 75 75 78 81 83 83 79 81 93 99 96
41 38 34 30 27 30 34 33 36 38 38 45 45 42 48 44 50 62 57 56 57 50 41 33 48 63 51 54 61 44 40 45 45 53 57 56 60 63 66 67 67 66 65 66 66 63 62 58 56 55 54 54 52 47 49 56 56 52 51 50 52 54 57 61 64 66 70 71 71 71 70 68 67 69 73 76 78 80 82 83 83 84 91 95 88 82
41 36 34 31 30 32 34 37 41 36 38 49 46 46 54 48 48 58 57 58 60 58 53 46 58 66 52 58 67 51 45 46 50 60 60 60 65 66 69 69 66 66 64 62 61 59 57 55 55 56 55 56 51 50 57 58 54 53 52 52 54 57 60 63 66 69 72 73 73 71 69 66 65 68 71 73 77 80 81 85 90 92 91 86 83 91
41 39 35 32 33 34 34 41 45 37 35 45 46 41 43 43 47 55 55 53 56 63 59 50 55 55 49 61 63 51 52 51 54 64 63 64 68 66 66 64 61 60 57 57 57 56 55 55 55 56 57 59 55 54 59 56 53 55 54 55 57 59 63 65 69 73 74 75 73 70 67 65 63 66 70 75 80 84 87 91 95 95 91 91 94 96
45 44 40 35 35 34 31 38 46 43 37 42 47 41 39 48 57 64 63 59 65 70 57 48 54 53 52 61 56 51 61 61 62 69 67 64 65 63 61 57 56 57 56 58 56 53 54 54 55 58 59 60 60 61 61 57 57 57 56 58 60 62 65 68 72 76 76 75 72 69 67 63 59 64 75 83 87 89 90 91 92 90 87 91 90 83
54 52 47 39 37 37 34 35 42 47 42 40 41 40 45 54 62 68 68 68 76 79 64 53 54 53 56 63 63 64 70 71 70 71 68 66 63 59 58 56 57 58 57 56 53 51 54 58 60 62 63 65 67 66 62 59 58 56 57 60 62 65 68 70 76 79 77 75 72 69 67 59 56 69 83 89 90 90 88 86 85 86 88 94 94 89
57 52 52 45 38 38 37 35 39 45 47 46 45 46 48 49 56 65 64 65 75 80 74 67 60 56 58 61 66 72 74 74 75 72 68 65 59 56 56 56 56 56 56 51 51 57 63 65 65 66 71 73 69 63 59 57 57 58 60 63 65 69 72 76 80 81 79 76 71 68 63 55 59 78 89 90 91 88 84 83 84 90 96 96 88 82
57 53 53 47 41 41 38 33 35 37 42 51 55 55 56 54 57 64 64 62 70 76 77 80 74 59 52 53 61 70 72 73 72 69 64 58 55 55 53 52 53 53 51 50 60 71 71 68 71 77 79 73 64 61 59 59 60 61 63 67 71 75 80 83 83 82 79 73 69 65 59 58 70 86 91 89 88 85 82 85 86 89 93 87 79 79
58 61 61 59 54 45 34 33 35 33 36 48 53 52 58 61 57 66 75 66 63 68 71 84 87 66 49 51 60 65 65 64 62 59 57 54 53 51 48 48 52 50 51 63 78 80 74 75 81 84 80 73 66 63 61 62 64 66 70 75 80 85 87 87 84 80 74 68 64 60 59 69 83 90 91 87 84 83 82 84 86 88 92 94 93 96
57 69 73 73 62 43 36 44 46 40 39 45 51 54 65 68 59 69 83 71 64 68 65 73 83 66 50 52 58 60 57 56 56 54 54 54 50 47 48 50 50 52 61 76 81 74 71 80 81 77 75 73 68 65 66 70 71 74 80 85 90 93 91 86 80 73 68 63 60 60 68 83 90 89 89 85 82 83 82 84 88 92 95 98 99 100
57 68 66 61 54 42 42 46 44 43 42 43 49 57 64 64 55 60 72 72 79 85 76 79 83 63 48 50 53 54 54 52 53 53 54 52 47 47 51 50 52 65 76 78 72 64 65 73 74 73 75 74 71 72 73 74 77 84 90 94 95 93 86 80 73 66 61 58 63 73 82 89 90 87 86 84 81 81 83 88 94 96 97 97 98 99
51 59 59 57 56 51 48 46 42 44 44 41 46 55 59 58 58 64 73 79 85 81 71 81 88 62 41 45 49 50 53 52 52 53 51 47 49 51 49 52 66 79 80 72 65 64 68 72 71 72 77 78 76 75 73 78 88 95 97 94 88 81 77 72 66 60 58 65 80 88 90 89 88 86 84 82 82 84 88 94 97 99 96 91 92 99
45 52 58 61 65 65 63 60 51 46 47 45 47 54 58 60 65 69 73 81 83 74 68 78 82 61 42 46 54 54 55 55 52 51 48 48 51 48 48 65 82 82 73 65 62 66 71 72 73 78 82 80 76 76 83 93 97 95 90 84 77 74 73 65 58 61 70 84 94 93 90 90 87 84 83 85 90 93 95 94 90 87 80 73 81 95
59 61 58 60 64 62 58 53 43 44 55 57 56 60 61 63 68 68 73 81 78 75 77 70 67 67 60 56 61 61 58 56 53 49 49 51 48 45 58 80 84 72 63 57 58 65 71 73 78 82 78 74 78 89 98 98 94 89 84 78 75 70 63 59 65 78 88 94 95 91 91 90 85 85 89 94 98 97 91 83 74 72 73 75 85 97
68 67 63 67 65 54 52 49 43 50 59 57 61 64 60 62 66 65 70 71 67 82 90 66 58 75 72 61 64 65 58 55 53 50 51 49 42 52 75 84 72 61 56 51 55 66 75 77 75 72 71 79 91 99 99 93 87 83 79 77 73 62 56 68 84 92 94 93 91 93 92 87 86 93 97 97 96 90 80 73 73 81 90 94 97 100
69 73 71 72 67 58 58 54 49 55 57 54 59 60 56 62 66 64 66 61 62 84 88 64 62 77 72 62 64 60 55 55 52 52 52 43 42 65 83 73 62 61 56 54 64 73 76 74 72 76 85 93 98 97 93 88 81 77 78 77 67 58 68 88 95 92 92 93 93 94 91 89 94 99 97 94 89 80 72 75 86 97 102 101 100 98
61 76 82 80 73 64 58 54 55 59 58 55 56 54 55 61 64 64 65 61 61 70 68 60 69 75 65 61 60 53 52 54 53 54 49 39 50 74 76 64 63 62 57 63 74 76 76 80 86 95 97 94 96 98 94 88 82 79 82 75 63 68 88 97 92 91 94 94 92 91 91 94 100 101 97 90 80 73 77 90 100 102 101 100 100 99
52 70 86 85 76 65 55 56 58 56 57 58 55 56 61 64 66 69 67 64 67 69 64 66 80 78 61 55 55 53 55 56 55 54 46 43 61 73 66 64 66 61 65 75 72 69 79 92 99 101 96 90 92 96 96 92 88 85 82 72 69 84 99 96 91 94 96 93 89 90 94 99 102 98 90 81 74 78 92 102 102 99 100 100 100 100
65 75 88 89 82 68 55 53 54 51 58 68 68 65 67 69 69 68 65 62 65 73 78 85 93 86 65 55 56 56 57 59 59 56 48 48 61 68 65 68 67 65 73 75 67 73 92 103 101 96 92 89 89 93 96 95 92 86 78 73 81 96 99 95 95 96 94 94 94 96 100 99 93 85 78 77 83 93 101 103 100 99 99 99 99 101
83 77 81 91 85 65 52 52 54 54 60 74 77 67 62 65 63 61 61 55 58 77 94 97 92 76 60 59 63 61 60 62 62 59 51 49 58 65 67 69 69 70 70 68 74 91 101 102 97 91 90 93 95 97 93 86 82 77 73 81 94 99 97 96 97 96 96 99 99 98 95 86 79 79 82 90 98 102 103 102 101 100 100 100 101 101
94 80 77 89 84 69 61 55 53 57 61 64 63 53 52 58 60 64 63 53 58 76 82 80 74 63 61 66 65 61 62 62 62 56 47 47 58 67 71 71 69 67 66 73 90 102 102 99 95 90 93 98 97 88 76 70 72 74 81 95 101 98 98 99 98 98 100 98 94 88 81 78 84 92 96 100 102 102 103 102 101 101 103 102 101 101
89 83 80 87 87 80 71 64 65 64 57 54 51 46 47 50 51 58 56 49 61 74 72 73 72 64 67 66 57 60 65 64 62 52 41 46 59 69 75 71 66 67 73 86 98 101 101 101 93 91 96 95 85 73 65 67 76 84 94 101 99 98 101 101 99 99 96 88 83 78 78 88 98 100 100 101 102 102 103 101 101 103 103 101 100 102
75 84 79 78 85 79 69 78 84 64 47 52 55 47 47 49 52 61 62 58 67 73 73 76 72 67 69 61 54 65 70 63 54 40 36 50 63 69 73 71 72 74 73 80 92 96 97 97 95 97 97 88 75 67 67 76 87 96 100 100 99 102 101 99 97 92 84 81 82 80 86 97 101 100 101 103 102 101 101 101 102 102 101 100 101 101
73 84 72 65 78 79 71 79 79 59 52 62 61 51 50 53 55 63 70 68 68 70 71 71 71 71 67 60 63 72 68 58 48 35 38 55 64 68 72 73 76 74 64 66 78 85 89 94 98 97 89 79 71 67 73 86 95 100 101 99 101 102 98 95 92 85 81 85 86 84 91 100 101 101 104 102 100 101 101 101 102 100 100 101 100 100
62 72 70 65 75 80 78 80 79 70 69 70 62 49 46 50 49 52 65 73 71 69 68 67 72 72 64 66 77 74 62 59 53 44 48 58 65 72 76 78 80 76 66 60 65 79 92 97 96 91 81 73 71 73 83 95 99 101 101 100 102 100 93 90 89 89 91 91 85 85 94 102 102 103 103 101 100 101 101 101 101 100 100 101 100 101
64 78 86 81 79 79 79 84 87 79 72 69 60 46 44 52 48 47 63 73 70 68 68 69 74 71 67 77 82 70 67 73 67 56 54 63 71 74 79 85 82 71 62 58 66 89 103 98 92 87 77 73 77 84 94 99 101 102 101 100 99 92 86 88 94 97 97 89 84 89 99 104 104 103 102 100 100 101 101 101 101 100 100 100 100 101
83 90 90 82 78 79 80 87 91 81 69 62 52 46 50 48 44 61 83 79 66 68 72 72 73 69 72 85 84 72 73 78 72 61 60 69 74 76 85 88 69 58 66 73 81 96 100 94 91 84 78 83 91 96 100 102 100 101 100 97 92 85 86 95 100 96 91 86 89 96 102 104 104 102 101 100 101 101 101 100 100 100 101 100 100 100
97 94 86 78 76 81 86 90 89 81 72 61 49 48 51 46 53 83 97 79 68 73 73 71 71 71 79 90 85 72 65 62 62 63 69 74 75 81 89 72 49 61 85 86 83 93 96 93 90 84 85 96 100 99 101 101 100 101 99 92 87 86 92 99 99 93 88 90 95 99 101 103 104 102 101 100 101 101 101 101 100 100 100 100 100 100
89 84 81 79 76 77 81 84 84 79 68 56 48 45 50 62 81 90 80 69 74 78 73 71 72 76 86 90 78 65 59 56 58 68 77 79 80 88 79 49 50 85 94 77 82 100 101 92 87 87 93 98 99 100 100 100 100 100 96 90 87 90 96 99 98 93 90 93 98 99 101 103 103 102 101 101 101 101 101 101 100 100 100 100 100 101
69 67 76 83 78 72 75 83 89 81 61 48 49 51 56 70 81 77 71 76 81 77 74 75 76 83 90 84 68 59 55 54 59 72 83 81 80 78 54 38 72 102 82 73 96 105 94 88 88 93 99 99 100 102 99 99 101 97 92 91 90 93 97 100 100 95 91 95 99 99 101 104 104 102 102 101 101 101 102 101 100 100 101 100 100 100
62 62 75 83 77 74 84 91 83 66 50 46 52 57 61 65 67 70 80 87 83 78 79 82 85 87 82 70 61 57 55 57 65 79 87 77 65 54 37 48 92 99 69 78 107 100 86 92 96 98 101 99 100 102 99 100 102 96 92 94 94 96 101 103 100 94 92 97 100 100 103 105 103 103 102 101 101 101 102 102 100 100 100 100 101 100
60 54 59 68 70 68 70 69 55 41 41 46 48 51 56 59 63 73 84 87 85 83 85 87 87 76 59 51 54 55 56 65 77 84 83 68 54 49 48 65 94 90 71 86 106 97 91 99 100 99 100 98 99 102 99 99 101 96 94 95 96 100 105 105 99 93 94 100 101 101 104 103 101 102 103 102 102 101 100 100 100 100 100 99 100 100
52 42 44 54 62 59 48 41 39 39 41 45 46 50 55 57 65 79 87 85 84 87 89 88 77 55 38 40 51 54 58 72 82 75 64 58 54 53 57 69 85 88 86 95 102 99 98 99 99 100 99 98 100 101 100 100 99 96 96 97 98 103 107 105 98 93 96 101 101 102 104 101 98 99 100 102 103 101 101 101 100 100 99 98 98 99
50 38 43 50 59 64 55 43 42 44 45 47 50 53 58 64 72 82 87 85 85 85 80 69 50 31 25 34 47 52 59 73 77 58 40 47 55 52 60 76 81 80 90 99 100 99 101 100 101 102 101 99 98 98 100 100 97 96 98 99 100 104 107 105 98 94 98 101 100 102 103 100 98 98 97 99 101 101 101 102 101 101 100 99 99 100
51 43 50 51 54 59 52 42 41 44 46 50 52 55 65 74 78 83 88 86 79 69 55 37 22 17 22 29 37 50 60 64 61 48 38 46 53 50 63 84 80 72 86 99 98 98 102 102 101 101 101 101 97 97 100 99 95 98 102 100 102 106 107 104 97 94 99 101 101 102 102 100 101 99 96 97 99 100 101 101 100 101 101 101 101 100
45 48 53 52 54 58 54 48 49 53 54 53 55 63 74 79 81 88 89 76 62 55 42 22 12 16 25 26 32 53 64 52 39 40 43 44 44 45 60 78 77 74 85 95 95 97 100 100 100 100 100 101 98 97 100 99 97 101 102 101 104 107 107 103 96 94 98 100 100 102 101 99 100 100 98 97 96 98 101 102 100 100 100 100 101 100
46 53 55 58 66 69 62 54 53 61 64 59 58 68 75 73 77 84 74 50 40 43 34 18 12 17 22 23 29 48 56 40 28 33 37 36 38 45 54 64 68 73 84 89 89 90 91 95 100 100 99 100 96 96 100 99 98 101 102 103 106 108 107 104 97 95 99 100 100 102 102 99 99 99 100 99 96 95 98 101 102 102 100 99 101 101
43 46 48 57 64 58 48 45 51 60 63 59 62 69 71 69 74 73 54 32 27 28 20 13 16 18 18 21 27 35 36 29 26 29 29 29 35 42 46 50 57 73 89 89 82 83 89 94 97 98 100 99 96 98 101 98 97 102 104 104 106 107 107 105 100 99 102 101 101 104 103 101 100 98 99 101 99 96 95 96 98 102 102 101 101 100
Wind_Speed
7 4 3 1 4 5 4 4 4 3 4 3 4 4 6 7 9 9 10 8 2 2 6 7 10 15 15 16 12 10 8 13 15 11 13 19 23 25 25 23 21 21 17 11 8 7 7 8 10 12 15 19 22 26 28 28 27 24 20 19 20 20 21 23 25 27 28 30 31 33 34 35 36 37 37 36 36 36 34 30 29 31 33 33 33 31
5 5 0 5 6 4 3 4 4 2 2 1 3 5 6 5 9 11 10 8 2 1 6 5 11 17 14 14 10 9 6 6 9 12 16 20 24 25 25 23 22 20 14 10 8 8 8 9 11 14 18 22 26 28 29 28 25 23 20 20 21 22 24 25 26 28 29 31 32 34 35 36 37 37 37 38 38 37 34 31 31 32 33 33 31 28
5 2 4 5 4 2 3 4 3 1 1 2 2 3 6 5 7 10 8 3 3 1 8 8 11 16 14 10 6 8 7 5 6 13 19 23 25 24 24 25 23 18 13 10 8 8 9 9 11 17 21 24 27 28 28 25 23 21 20 21 23 24 25 27 29 31 33 34 34 34 35 36 38 39 38 38 38 37 35 33 32 33 33 32 30 29
3 2 4 2 2 3 2 3 3 2 2 3 3 3 6 5 4 6 6 3 1 3 10 11 10 12 8 4 4 9 9 7 3 9 17 22 25 24 25 24 20 15 12 10 8 8 9 10 14 20 24 26 27 27 25 22 20 21 20 22 23 25 27 29 31 33 34 35 36 36 37 38 39 39 39 38 37 36 34 33 33 34 35 35 34 33
3 4 1 2 3 2 2 4 4 4 5 4 4 4 7 8 4 7 9 11 7 3 4 7 9 8 4 2 3 7 10 11 9 11 14 16 22 23 23 19 15 13 10 8 8 8 11 15 19 23 25 27 27 25 22 19 19 20 21 22 24 26 29 30 31 32 33 35 36 38 39 40 39 39 38 37 36 35 34 35 36 36 36 36 35 33
4 3 1 2 4 5 2 4 2 1 5 5 5 6 7 8 7 9 11 12 9 4 1 5 7 7 3 2 3 4 7 8 8 11 13 17 21 22 20 17 14 12 9 7 8 13 18 20 22 25 26 27 25 22 20 19 19 21 22 23 25 28 29 30 32 32 33 34 35 36 37 38 38 37 36 35 35 36 35 36 36 36 35 35 34 33
2 2 2 3 3 5 5 4 2 2 5 6 4 3 5 6 7 12 12 7 6 7 3 2 2 7 6 4 4 3 5 7 6 8 10 16 19 18 17 14 12 10 8 10 15 20 23 23 24 25 26 26 24 21 20 20 20 21 23 25 27 29 30 31 32 32 32 33 34 34 34 34 35 35 36 36 37 36 35 34 34 34 34 34 34 34
2 5 5 5 5 5 5 4 2 3 3 6 3 2 6 9 11 14 11 5 5 6 4 1 2 5 6 3 2 2 6 6 5 6 7 12 16 16 15 12 11 9 12 18 22 24 25 24 25 27 27 26 24 21 21 21 21 22 24 27 29 30 31 31 31 32 32 32 33 33 33 34 34 35 37 39 38 37 35 35 36 37 36 34 34 35
1 4 4 4 5 4 2 3 3 3 1 6 4 3 7 10 12 11 9 7 3 4 6 3 2 3 7 2 2 2 5 3 2 4 4 8 13 13 13 11 9 12 19 24 24 25 26 26 27 28 28 26 24 22 22 21 22 24 26 28 30 31 31 31 31 31 31 32 32 33 34 36 37 38 40 40 39 37 37 38 40 40 39 38 36 36
2 2 1 1 1 2 4 5 4 4 4 8 7 7 8 9 8 5 4 5 2 1 5 6 2 1 8 3 2 2 3 1 3 3 3 6 10 11 11 9 14 19 24 26 26 26 28 29 29 29 28 27 25 23 21 21 23 26 28 29 29 30 31 31 31 31 32 33 33 34 35 37 40 41 42 40 39 38 39 41 41 40 38 35 33 34
6 2 2 2 2 3 4 5 4 5 4 8 8 7 7 5 1 2 1 1 3 2 5 5 2 2 6 3 2 2 2 3 3 4 3 4 9 9 7 14 21 23 26 28 27 28 30 30 30 29 28 27 25 22 20 21 25 27 28 29 29 31 31 32 32 33 33 34 34 35 36 38 41 41 40 39 39 39 39 38 36 35 33 32 33 36
9 3 1 2 1 1 2 4 3 2 1 6 5 5 8 5 3 4 4 4 3 6 5 2 2 1 5 3 1 3 4 1 4 5 3 4 7 7 12 19 23 24 26 27 28 30 30 30 30 29 28 28 25 21 20 23 26 27 28 29 30 31 31 32 33 34 34 35 35 35 37 39 39 38 38 38 39 38 37 36 35 34 35 36 37 37
6 2 4 3 1 3 3 4 5 3 4 6 4 5 7 6 5 5 6 4 2 8 5 2 2 2 5 3 1 2 5 6 8 10 9 8 6 12 18 20 23 25 26 27 29 30 30 30 30 29 29 29 26 23 21 25 28 29 30 30 30 31 31 32 33 34 35 35 36 37 38 39 38 38 38 39 39 38 37 37 37 37 36 36 38 37
5 5 6 3 1 4 4 3 5 4 6 7 3 3 4 4 6 6 6 5 6 10 6 2 1 5 5 2 1 1 5 10 14 15 13 12 10 15 19 19 23 26 26 28 29 30 31 30 31 32 31 31 29 25 22 27 30 31 32 31 31 32 33 33 34 34 34 35 36 37 37 38 39 41 41 40 39 37 37 37 38 37 34 35 38 39
3 5 5 3 3 6 5 3 0 3 5 4 2 3 2 1 3 5 4 5 9 13 9 1 1 4 5 2 3 3 8 13 14 13 16 16 12 15 18 19 24 27 27 29 29 30 31 32 35 35 34 35 30 23 24 30 32 32 32 31 31 33 34 35 34 34 34 35 35 36 37 39 41 43 41 39 38 37 37 38 37 34 33 35 38 37
1 5 5 3 4 3 3 1 1 1 3 2 2 3 2 1 2 4 5 5 7 11 8 2 1 4 1 1 2 5 8 9 8 12 17 16 15 18 20 21 25 27 28 29 29 31 34 37 38 35 35 35 26 21 28 34 33 32 31 31 31 33 35 35 34 34 35 35 36 37 39 41 43 42 41 40 39 37 36 35 33 33 33 34 34 33
2 6 6 7 5 1 2 3 2 3 2 1 2 2 4 3 5 2 8 4 4 8 7 2 3 4 1 0 1 3 3 2 4 11 15 15 18 21 23 26 29 29 30 30 32 35 37 38 36 34 34 30 21 22 31 34 33 32 32 32 33 34 35 34 34 34 35 35 36 39 41 43 44 43 41 39 37 34 32 31 30 31 31 30 30 31
1 6 7 5 3 3 4 5 3 2 2 2 2 5 4 0 4 2 4 5 5 8 8 5 8 8 5 3 0 1 3 5 6 10 14 19 24 27 29 31 32 32 33 33 35 38 37 37 36 32 28 22 21 27 32 32 32 33 32 32 33 34 35 34 34 34 35 35 38 41 43 45 45 41 37 34 31 29 28 28 27 27 28 29 29 30
1 4 6 1 2 8 7 4 3 4 2 1 3 3 2 4 5 3 2 6 7 8 8 10 12 7 4 4 1 3 8 9 9 12 14 19 25 28 30 32 33 34 33 35 37 38 37 35 31 25 22 23 27 30 31 32 33 34 34 33 32 34 34 35 35 35 35 37 39 41 44 46 44 37 32 29 27 26 26 27 26 26 27 27 27 28
1 1 5 3 3 7 6 4 3 5 3 2 3 3 3 2 3 1 1 3 4 6 9 13 13 5 2 2 4 5 8 8 9 11 12 19 25 28 30 32 33 33 34 37 39 36 34 29 24 25 27 28 29 30 31 33 34 34 33 32 31 33 34 34 34 34 36 38 41 43 45 45 39 31 28 26 25 26 26 26 25 25 26 26 27 28
1 0 4 6 5 5 4 2 1 3 4 4 3 4 5 3 2 2 2 0 1 5 7 10 12 6 1 2 4 5 6 6 8 11 13 20 26 28 31 33 34 35 38 40 37 33 32 30 30 30 28 27 29 31 32 33 33 33 31 30 31 32 32 32 33 34 37 41 43 45 45 41 34 28 25 25 25 25 25 24 25 25 26 27 27 27
1 1 3 6 6 4 5 2 1 1 3 1 1 3 4 2 3 6 5 2 1 3 5 8 12 7 2 2 4 4 4 4 9 16 18 22 29 33 36 38 38 39 41 39 35 35 35 34 33 31 28 30 33 33 33 33 33 32 29 28 28 28 29 31 33 37 41 44 45 44 41 34 28 25 24 24 25 24 23 24 25 25 26 26 26 25
0 1 2 5 5 7 9 2 3 1 2 3 1 0 0 1 3 3 6 6 4 5 5 6 10 7 2 2 5 4 7 12 20 28 27 30 36 39 40 41 41 40 39 37 37 38 38 35 35 36 35 35 34 33 33 34 33 31 27 25 25 27 29 33 37 42 44 45 44 40 34 28 24 24 23 23 24 23 23 24 24 24 24 25 25 24
1 1 2 5 5 6 5 1 3 2 2 2 2 2 2 2 1 3 6 5 4 5 3 4 10 6 1 2 2 6 19 27 31 34 33 35 39 39 40 41 41 39 37 38 40 40 40 38 39 40 37 34 33 34 36 36 33 28 23 23 26 30 34 37 42 45 46 43 38 32 28 25 24 24 23 23 23 23 23 23 23 23 23 24 24 24
3 1 3 6 7 6 5 4 3 3 3 3 3 2 5 6 6 3 3 2 1 4 4 7 10 7 4 6 8 15 24 28 31 34 34 36 37 38 39 38 39 38 36 38 42 42 41 40 40 39 36 34 37 40 41 36 26 21 21 27 34 38 41 44 47 46 43 37 29 25 25 25 24 23 23 23 23 22 22 22 23 24 24 26 26 26
2 0 2 3 5 8 8 7 8 8 7 4 4 5 7 8 8 5 3 4 4 6 6 6 9 11 14 14 12 15 20 23 28 34 36 36 36 37 38 35 34 34 35 41 44 42 41 41 40 37 34 37 42 43 35 24 19 23 31 38 42 45 47 49 47 41 35 27 22 24 27 25 23 23 23 22 22 22 22 24 26 29 31 31 28 24
1 0 2 5 4 5 8 10 11 10 9 9 10 9 7 6 6 5 4 4 7 10 8 7 12 19 21 16 12 15 21 21 24 32 36 35 36 39 36 30 30 35 41 46 45 42 42 40 36 35 37 42 43 32 21 20 27 35 40 43 46 48 48 46 40 33 26 23 24 27 27 24 23 23 22 23 24 26 28 31 35 35 33 28 23 21
3 2 3 5 7 9 9 13 14 11 10 11 10 8 7 6 5 5 3 6 7 9 9 11 18 22 21 17 15 19 21 19 23 31 34 35 40 38 31 28 34 43 49 49 46 42 39 35 36 40 42 39 30 21 22 32 40 42 43 45 47 47 44 38 32 26 23 24 27 27 25 24 24 24 25 28 30 31 35 37 35 30 25 22 20 21
4 2 4 3 6 10 10 13 13 9 8 5 4 5 7 7 6 5 5 7 6 7 11 19 23 20 17 16 17 21 24 23 28 32 35 43 45 34 28 34 43 50 52 50 44 39 36 37 40 40 36 31 26 28 36 42 43 44 45 45 45 44 38 30 26 25 25 27 28 26 25 25 25 27 30 31 33 36 38 34 28 23 21 20 20 21
3 3 3 1 7 11 10 12 11 7 6 2 3 3 6 6 5 6 7 8 9 11 16 20 20 15 12 13 18 26 31 33 34 35 40 47 41 29 33 43 48 51 52 45 39 37 37 37 35 32 33 34 34 38 42 42 42 44 44 43 44 40 31 25 25 26 27 27 26 26 26 25 25 28 31 34 39 39 34 28 24 23 22 21 20 21
2 3 1 2 5 10 9 8 8 8 5 1 2 3 6 7 6 5 6 9 12 16 16 14 14 11 10 17 26 32 35 36 33 35 43 43 33 31 40 47 49 51 47 39 39 40 35 31 29 31 34 37 36 36 37 39 41 43 42 44 43 34 26 25 27 27 26 26 26 26 25 24 27 32 37 40 40 35 28 25 25 24 23 22 21 20
3 2 3 4 4 8 5 5 12 13 2 5 1 5 6 7 8 8 9 11 13 16 15 12 9 8 12 23 29 31 34 34 30 34 41 38 31 35 43 46 48 47 41 39 42 38 30 27 31 35 37 37 36 34 36 40 42 43 44 44 37 28 26 28 28 26 26 26 25 25 24 27 34 39 41 39 33 29 28 28 27 24 23 22 21 20
2 1 3 3 3 8 6 9 15 12 3 3 2 4 6 8 9 9 11 12 9 6 7 7 7 11 19 25 24 24 27 28 29 35 39 34 32 38 43 45 45 41 38 41 40 33 29 33 39 42 39 36 35 36 40 44 44 44 43 37 29 26 28 29 27 25 25 25 25 27 30 37 41 40 36 32 29 29 30 29 27 25 24 23 21 20
3 2 2 0 1 8 11 12 11 6 6 2 4 2 8 9 9 10 14 14 7 4 5 10 12 17 22 22 21 24 26 27 33 38 36 31 33 40 44 44 42 40 39 38 34 30 31 37 43 43 37 34 38 43 46 46 42 39 35 29 25 27 28 28 25 24 24 26 30 35 40 42 38 33 31 29 30 31 30 28 26 24 23 22 21 20
2 2 2 1 2 5 7 10 10 7 4 3 6 5 8 8 9 14 18 13 6 6 11 14 17 21 23 26 29 30 31 36 41 38 31 30 36 42 42 41 40 39 37 36 33 31 33 37 40 39 37 39 44 47 47 42 36 33 30 26 26 27 27 25 24 25 29 34 40 43 43 38 32 30 30 30 31 30 28 27 25 23 22 21 20 20
1 1 1 1 1 3 4 6 5 7 4 3 3 3 7 7 10 17 18 8 3 6 12 13 17 23 27 34 37 32 34 42 42 35 30 34 41 43 41 39 38 35 35 37 36 36 37 38 38 38 39 43 47 48 44 36 32 30 28 27 27 26 24 25 27 32 39 43 45 43 39 33 30 30 31 31 31 29 27 26 24 22 21 20 19 18
3 2 1 2 1 2 5 4 5 7 5 3 1 6 7 7 8 10 13 6 2 8 15 15 17 24 30 35 36 35 39 38 30 27 33 41 44 43 40 38 33 32 37 41 39 39 40 37 35 38 41 45 48 45 37 31 30 29 27 27 27 25 26 30 35 41 45 45 43 40 35 31 30 31 32 31 29 28 26 25 23 21 20 20 19 17
4 2 1 2 2 2 3 6 5 6 5 0 3 9 11 15 16 9 7 5 2 14 25 21 19 26 32 31 30 33 35 25 13 18 36 45 45 43 40 34 30 36 45 46 41 39 37 33 35 41 45 47 46 39 33 30 30 28 26 26 26 27 32 38 41 43 44 42 40 38 34 31 31 32 32 29 28 27 26 24 22 20 20 20 19 18
6 3 4 3 2 2 2 3 4 6 4 2 3 9 13 21 25 15 7 4 5 21 32 27 24 30 30 27 28 28 22 12 8 20 38 45 43 41 36 32 37 47 49 43 37 33 30 31 38 44 47 47 42 35 32 31 28 26 25 25 28 34 40 41 40 40 40 40 38 36 33 32 31 30 29 27 26 26 24 22 20 20 20 19 20 20
6 4 4 3 2 1 0 2 2 5 5 1 7 13 18 23 20 11 8 8 14 28 34 28 28 31 27 26 28 21 12 9 14 27 41 43 40 36 31 35 47 50 42 36 33 31 30 35 41 45 46 42 36 34 33 30 26 25 25 28 35 41 41 39 38 38 38 37 36 34 32 30 29 27 25 25 24 23 22 21 20 19 20 20 21 22
3 2 2 1 3 3 3 3 3 5 5 4 11 15 21 23 12 3 5 13 22 31 32 29 31 30 25 27 27 19 18 24 28 35 41 39 35 33 35 44 50 41 31 33 33 30 34 39 42 45 42 36 33 33 31 27 25 25 29 36 41 42 38 37 37 37 37 36 34 32 30 27 25 24 23 22 22 22 20 19 18 19 20 22 24 24
1 2 2 1 2 2 3 3 5 5 4 4 14 15 18 18 7 3 11 21 26 30 29 29 30 27 27 30 30 27 32 36 36 37 36 34 33 36 43 50 44 32 31 35 31 29 36 42 43 43 39 34 32 32 29 26 26 30 36 41 42 38 36 36 37 37 36 33 31 30 27 24 22 21 20 20 21 21 18 16 16 19 21 23 24 24
2 1 3 3 2 1 2 2 4 4 1 12 20 15 12 9 6 12 21 26 27 27 27 27 27 27 29 32 33 34 37 38 38 37 35 34 37 41 47 46 35 30 36 36 29 31 39 42 41 39 36 34 32 29 27 28 31 36 41 41 38 36 35 37 37 36 34 32 30 28 25 22 21 20 19 19 19 19 17 15 15 18 21 22 23 23
2 2 2 3 1 1 2 0 2 7 8 15 16 7 3 5 11 18 22 24 26 26 25 25 27 29 32 33 33 35 35 36 38 36 33 37 42 45 47 41 31 33 39 34 30 36 40 39 37 35 34 33 29 27 28 31 35 40 41 37 35 35 36 38 37 34 32 31 29 26 23 21 20 19 19 19 18 17 16 14 14 16 18 20 22 24
4 6 4 3 3 3 5 8 12 19 19 16 16 12 9 12 19 22 20 21 24 24 23 25 29 32 34 33 33 34 34 34 36 34 34 39 43 43 43 37 30 34 37 31 31 37 38 36 36 36 34 31 28 28 31 33 37 40 38 34 34 35 37 37 35 33 32 30 28 25 22 20 19 18 19 19 17 17 16 14 13 14 16 18 20 23
5 6 5 2 3 6 10 16 21 22 20 19 19 16 13 17 22 22 20 21 23 23 24 26 29 33 34 32 31 33 33 32 33 35 38 40 41 41 40 36 33 35 34 30 31 34 35 35 37 37 33 29 29 31 32 34 37 37 34 33 34 35 36 35 33 33 32 29 26 24 21 20 19 19 19 17 15 15 16 15 14 14 15 15 17 21
4 7 5 2 2 3 5 10 12 13 16 20 17 11 12 20 23 20 20 22 22 24 27 29 30 32 32 30 30 32 33 31 33 38 41 40 39 40 38 35 36 36 33 30 30 32 33 35 38 36 30 30 33 33 32 35 36 32 31 33 34 35 35 33 32 32 30 28 26 23 21 21 21 20 20 17 14 13 13 13 13 14 15 16 17 20
2 5 4 3 3 3 7 13 15 17 19 17 12 10 14 20 21 19 19 21 21 24 28 30 31 31 30 30 30 30 31 32 34 38 40 38 38 39 37 35 36 36 33 30 31 32 33 36 37 33 28 32 37 34 31 35 35 30 30 33 34 33 33 32 31 30 29 27 25 22 21 22 22 22 21 19 15 13 12 13 13 13 15 16 16 18
4 4 3 3 3 6 10 12 13 14 11 7 6 11 16 18 18 18 20 21 22 25 28 29 30 30 28 29 30 28 29 33 35 37 38 37 38 38 37 35 35 34 32 31 32 33 35 36 35 30 29 35 38 33 33 36 33 29 31 33 32 32 32 31 30 29 27 26 24 22 22 22 22 22 22 20 17 12 9 11 14 13 13 12 10 13
5 3 2 1 3 5 5 6 7 7 7 8 11 16 19 18 19 20 23 25 25 26 27 29 30 29 28 29 29 27 29 33 36 36 37 37 38 37 36 36 36 34 31 32 34 35 36 36 33 28 30 36 36 33 35 37 31 28 31 32 30 30 30 30 30 29 27 26 24 23 23 23 22 22 22 21 20 15 8 4 5 9 12 10 6 7
11 8 5 4 5 9 11 13 10 8 10 15 17 18 18 18 19 22 26 27 25 25 27 28 30 31 31 30 29 29 31 34 36 37 38 39 38 36 35 35 35 33 31 32 36 37 36 36 32 28 31 35 33 32 36 36 29 28 31 30 29 29 28 28 29 28 27 26 24 23 23 23 22 22 22 21 21 21 17 10 2 2 6 8 5 5
Wind_Direction
20 41 62 278 250 257 253 194 190 189 180 247 272 263 270 274 281 279 271 278 35 321 260 220 246 263 275 284 293 315 281 233 229 210 180 178 178 177 175 171 165 156 146 130 101 73 52 32 15 5 356 349 347 345 344 345 346 347 343 337 333 328 324 322 322 324 326 326 326 324 323 322 320 319 319 317 314 312 310 307 301 299 301 303 304 305
28 65 50 240 226 232 239 181 166 169 175 259 268 283 293 263 274 277 270 292 36 297 269 230 267 278 282 289 305 341 325 249 227 196 175 173 174 175 173 164 156 149 136 118 93 67 43 20 4 353 346 343 342 341 341 343 343 343 339 333 330 329 328 329 331 333 333 333 332 330 328 325 323 322 320 317 314 311 310 306 302 301 301 302 305 303
33 70 271 258 209 160 75 98 132 176 221 254 266 298 308 291 289 279 257 296 60 285 289 293 292 288 289 298 341 10 340 302 258 208 185 173 169 170 166 157 151 142 123 108 87 55 32 10 353 342 338 338 338 338 339 340 339 338 335 332 332 333 334 335 337 337 336 335 334 332 330 328 325 323 320 315 312 309 307 304 301 300 300 301 302 299
15 273 266 246 163 150 46 31 87 34 349 260 282 308 294 306 329 294 277 312 36 246 286 305 300 289 301 331 36 23 20 31 31 188 180 173 169 166 160 153 146 135 116 98 72 41 23 359 341 335 334 336 336 335 335 335 335 334 333 332 334 335 335 336 337 336 334 332 332 332 330 329 327 323 319 313 310 307 305 302 300 299 298 297 297 295
272 266 259 86 76 105 308 341 62 31 339 284 259 254 276 298 287 267 294 311 307 271 290 326 311 295 336 28 356 13 39 50 66 118 139 154 158 154 147 139 130 121 106 82 55 22 359 342 334 333 333 333 332 330 329 329 329 330 331 332 332 333 334 335 334 333 332 332 332 332 331 330 327 323 319 313 309 306 303 301 300 300 299 298 297 293
279 278 308 34 35 52 6 324 43 49 342 313 261 227 250 292 293 279 302 321 323 309 340 17 336 300 326 20 340 1 35 38 52 87 106 127 136 135 126 115 110 106 86 55 19 351 340 333 331 332 331 329 327 323 320 322 326 327 329 331 331 333 333 333 333 332 333 332 332 332 330 329 326 321 317 312 309 306 303 302 302 301 300 299 296 291
291 346 50 50 13 16 8 321 273 98 20 322 268 203 246 289 300 291 304 322 311 295 280 70 306 278 301 356 0 9 48 51 51 65 92 113 118 117 110 100 97 89 51 10 347 336 332 330 329 329 327 325 322 316 314 318 325 326 328 330 332 333 333 333 332 332 332 331 330 330 328 325 322 317 314 312 311 308 306 303 301 300 300 299 294 289
295 355 21 29 7 3 3 328 255 126 24 298 250 44 318 303 294 289 298 282 270 306 309 184 180 266 288 317 323 39 74 63 58 69 85 101 104 103 97 90 83 55 7 345 333 328 328 327 328 326 323 322 317 311 311 317 324 327 329 332 333 333 332 332 331 331 331 330 329 328 325 322 319 316 314 314 314 310 306 302 299 299 298 296 291 287
288 1 357 358 359 357 319 279 211 152 296 278 272 320 292 283 279 280 288 275 287 350 313 295 98 285 284 288 336 30 86 85 119 110 80 94 99 93 86 78 48 2 341 331 324 323 325 325 325 323 321 319 313 307 308 315 323 327 330 331 331 331 331 331 330 330 330 329 328 326 324 321 319 317 316 315 312 308 303 300 298 298 297 294 289 286
311 327 292 60 41 269 265 254 207 170 257 288 305 303 275 265 268 273 282 284 332 48 277 292 84 317 299 320 21 13 86 171 193 124 86 98 91 80 77 41 351 333 328 326 322 321 323 323 322 321 319 316 309 304 305 315 324 327 329 330 329 330 330 330 330 329 328 327 326 325 323 321 319 318 316 314 310 306 303 300 299 300 299 294 287 284
315 310 205 100 173 235 277 275 233 189 261 316 332 320 302 285 293 55 356 341 4 281 258 271 130 74 308 312 73 337 290 227 175 103 89 89 75 67 38 348 333 324 322 323 321 320 321 321 319 316 314 311 304 299 304 317 326 328 329 329 328 329 329 328 327 326 326 325 325 324 322 320 318 318 316 313 310 307 305 302 301 301 298 292 286 286
334 26 180 334 279 279 316 296 287 178 337 355 351 334 333 330 23 24 352 42 26 292 280 250 134 137 279 289 53 313 312 249 133 109 93 63 57 22 334 325 326 324 321 321 319 318 318 315 313 312 311 310 301 295 306 321 327 328 329 328 326 326 325 324 325 324 324 324 324 323 321 319 318 317 314 312 309 306 303 301 299 299 295 291 288 288
336 306 299 319 92 30 352 302 328 5 18 11 7 6 0 347 354 344 330 359 273 276 294 76 63 276 268 294 314 339 14 51 79 83 67 39 8 333 322 317 322 323 319 317 315 314 312 309 311 311 312 313 302 293 309 327 330 330 329 327 323 321 322 322 322 322 322 322 322 321 320 319 317 315 312 309 306 302 300 298 296 297 295 291 290 289
335 298 326 11 46 14 30 10 351 340 343 354 13 38 24 356 337 317 312 319 292 290 294 99 54 293 299 323 208 31 53 77 77 65 35 6 333 324 323 315 318 319 314 313 311 310 310 310 313 313 315 317 305 296 315 331 332 331 328 324 320 318 319 320 320 320 320 320 320 320 319 318 316 314 311 307 304 301 298 296 296 295 292 289 290 291
349 309 333 31 334 347 23 58 13 276 313 325 180 135 73 19 310 291 287 300 302 301 301 342 136 271 304 309 189 111 85 89 74 39 5 353 336 327 324 315 317 318 314 313 311 312 314 315 316 314 315 316 305 302 324 332 330 328 324 320 317 315 316 318 319 318 318 319 319 319 318 317 316 314 310 307 304 300 298 297 295 293 289 289 292 293
324 269 271 319 320 340 17 11 209 306 317 279 158 91 18 224 200 259 262 259 288 299 299 319 217 233 239 220 158 90 91 97 57 7 357 354 342 332 325 319 320 319 319 318 317 318 317 316 315 312 314 313 303 308 325 328 327 325 321 317 314 313 314 316 317 317 317 318 318 317 317 318 318 314 310 306 303 301 300 298 295 292 291 292 293 293
349 274 284 335 335 82 49 313 313 351 323 308 24 339 280 196 149 263 288 293 329 309 300 309 295 299 0 245 156 98 93 100 9 352 350 346 341 336 330 327 326 325 325 324 322 320 317 316 315 313 314 308 296 309 322 324 325 322 319 315 312 311 313 316 316 316 317 317 317 316 318 320 318 314 309 307 306 304 302 299 296 294 295 295 294 294
277 281 299 348 320 289 328 326 336 16 9 24 339 292 287 123 110 98 301 319 330 299 293 310 313 317 329 324 170 122 3 354 339 342 345 343 342 338 332 331 329 327 326 324 323 321 319 319 317 314 311 304 304 317 323 324 323 320 318 314 310 311 314 315 315 315 316 316 316 317 319 320 318 314 311 309 308 306 304 301 298 296 296 295 294 294
167 294 306 0 278 296 325 4 7 352 28 112 277 296 16 344 335 17 323 311 318 302 297 307 310 312 302 302 83 40 352 347 338 343 346 341 338 333 329 329 327 327 326 325 325 324 323 322 319 316 317 318 322 325 325 323 322 320 317 312 309 311 314 314 314 315 315 315 317 319 320 320 319 316 313 310 307 306 304 302 300 298 296 295 295 295
125 304 294 296 304 310 337 34 351 324 341 6 321 342 33 295 277 299 281 306 325 309 304 308 312 318 282 305 75 42 354 345 339 342 340 332 330 329 328 328 326 326 327 328 328 328 329 328 323 322 325 325 326 325 324 323 321 319 316 311 310 312 313 313 314 316 316 318 320 321 320 320 319 315 310 308 306 306 304 302 301 301 300 299 299 299
15 126 265 289 322 339 346 12 355 316 322 348 357 344 342 323 255 274 281 108 23 308 308 309 308 316 11 46 86 53 1 343 330 331 329 326 327 328 330 329 328 330 330 330 332 334 334 331 326 324 323 325 325 324 323 322 321 319 315 312 312 312 313 314 316 318 319 321 322 321 321 320 317 312 309 309 308 307 306 305 304 303 303 303 302 302
343 168 246 296 331 335 292 271 113 268 262 245 341 315 312 319 344 337 319 321 63 300 295 293 298 308 20 74 101 65 2 319 322 331 330 330 332 333 333 333 333 332 331 333 338 339 335 333 332 328 323 323 324 323 325 324 323 321 317 315 313 312 314 316 319 321 322 323 322 321 320 318 314 311 310 311 311 309 307 307 306 305 305 306 305 306
178 122 251 273 269 266 271 279 70 40 188 161 152 294 201 88 45 352 300 305 314 296 287 275 286 303 20 117 136 90 1 343 340 340 337 334 335 334 333 333 332 331 336 342 344 340 335 333 333 330 324 323 324 327 328 327 325 323 320 314 311 313 318 321 324 325 324 323 321 320 320 317 313 312 312 313 313 312 311 310 309 309 308 308 306 305
17 71 324 288 262 257 268 21 61 25 40 28 350 55 70 17 20 215 251 300 306 289 314 297 290 303 61 174 174 7 353 348 343 340 337 334 333 333 332 332 333 337 344 346 343 339 336 333 331 330 327 326 329 330 329 327 325 322 315 311 316 322 325 327 328 327 325 323 320 320 320 317 314 314 314 314 314 314 314 313 313 313 312 310 307 305
343 6 359 340 331 324 329 358 340 317 4 350 303 6 33 3 343 286 256 2 292 267 317 313 294 303 327 321 342 354 349 343 337 336 336 333 332 332 331 333 340 345 347 345 342 340 337 334 333 331 330 330 332 330 328 326 322 319 321 325 330 332 330 329 328 326 324 323 321 321 321 319 317 317 316 316 316 317 316 316 316 315 310 307 306 303
323 267 74 54 348 327 320 320 315 316 334 326 299 343 11 3 353 345 338 352 315 290 307 299 287 302 318 327 348 354 342 334 333 335 335 334 333 331 332 339 348 350 347 344 342 339 336 333 331 332 332 331 331 329 329 329 329 335 338 337 336 334 331 329 328 327 326 325 323 323 323 321 320 319 319 318 316 314 313 312 311 308 305 304 303 302
67 283 194 168 201 261 270 279 293 311 317 307 314 339 3 1 4 29 19 332 311 306 305 298 302 310 320 333 348 344 336 333 334 335 335 335 334 333 337 347 351 348 346 343 339 335 333 333 333 334 332 329 330 334 342 349 346 344 342 339 335 333 331 331 330 329 328 325 324 324 324 323 322 321 317 313 310 309 308 307 306 306 306 306 305 306
88 311 264 195 217 246 259 275 290 304 298 296 318 346 357 349 5 33 353 297 310 318 308 313 318 315 319 334 341 335 334 334 334 334 335 335 334 336 345 351 348 347 345 340 335 333 333 335 334 332 329 330 338 353 357 351 346 343 340 336 334 334 334 333 331 330 328 326 326 326 324 324 323 318 313 310 309 308 308 309 309 310 311 310 306 303
112 254 259 211 256 265 266 275 282 284 281 297 356 357 342 340 348 350 300 278 299 308 298 311 318 316 319 331 334 332 333 333 331 333 337 336 335 341 351 349 347 346 342 337 334 335 336 336 335 335 339 348 356 353 347 344 342 339 336 335 335 336 337 335 332 330 328 327 329 328 326 326 319 313 312 312 311 312 313 315 316 315 314 310 304 300
112 250 250 254 285 283 278 277 278 277 281 339 45 349 330 327 309 292 278 281 298 297 297 308 314 313 320 328 328 330 332 331 332 338 340 336 335 345 350 346 346 343 337 335 337 337 338 340 346 353 358 358 353 345 341 341 338 336 334 335 337 338 337 335 332 330 329 330 330 328 328 325 317 313 314 314 314 317 321 323 323 320 318 316 311 308
39 297 306 65 307 294 280 268 281 291 281 155 85 345 332 325 314 306 308 316 316 307 307 316 315 310 322 330 329 330 333 333 337 342 339 332 336 349 348 345 343 338 335 337 338 336 339 348 357 360 355 351 348 343 338 336 335 334 334 335 337 338 335 333 332 331 331 331 331 332 332 327 319 316 316 316 319 323 328 330 328 326 325 323 319 316
42 327 344 49 344 294 289 322 316 311 299 132 63 349 346 337 340 341 328 320 315 313 322 332 324 315 330 334 332 332 334 335 339 341 334 329 339 349 345 342 339 337 338 339 337 338 347 356 356 352 348 347 346 341 336 334 333 333 333 335 336 335 332 333 333 333 332 332 333 334 330 322 318 317 318 321 327 332 334 334 333 331 329 327 325 322
85 355 326 24 327 294 323 340 314 309 9 92 281 334 355 349 341 328 317 317 319 328 337 332 323 328 333 334 332 331 335 337 339 336 330 330 341 345 341 340 339 338 338 338 338 344 351 350 347 347 347 346 343 337 334 333 332 331 334 336 335 333 332 333 334 334 333 334 333 327 321 320 321 323 326 332 335 334 333 334 333 332 331 330 328 326
90 35 307 141 305 301 320 332 316 324 8 327 203 82 8 342 328 317 318 328 353 57 354 329 331 333 331 332 331 330 333 335 334 332 329 334 343 342 340 340 339 337 338 340 344 348 346 342 343 345 345 342 337 335 333 333 333 335 338 340 337 335 335 335 336 336 335 332 327 323 324 327 329 331 333 334 332 331 332 334 334 335 335 333 330 329
72 10 309 180 186 280 317 350 350 349 5 195 170 75 8 325 315 323 327 339 17 18 349 339 335 330 327 329 331 330 331 331 329 329 332 340 343 342 341 341 339 338 339 342 347 346 341 341 341 341 339 335 334 335 335 336 339 342 342 340 337 337 338 338 336 333 330 328 327 329 333 335 335 333 331 330 331 332 335 336 336 338 337 334 333 333
112 26 319 213 217 293 347 23 344 304 325 130 157 7 354 340 340 336 331 344 71 5 349 339 327 328 330 331 331 331 333 330 327 329 338 343 342 343 342 339 337 340 341 339 340 339 338 339 338 336 334 332 333 335 337 340 345 344 340 339 339 340 340 337 332 329 329 331 333 336 338 337 334 331 330 332 334 336 337 338 340 341 340 338 339 341
126 103 12 333 355 350 332 319 251 271 317 45 16 330 336 335 337 326 318 323 72 4 350 337 326 332 334 332 332 334 335 331 326 331 340 342 341 341 340 337 337 340 339 335 331 333 335 335 333 331 331 331 333 337 341 346 347 341 338 340 341 339 336 333 332 332 334 335 337 339 340 337 333 332 334 336 338 338 341 342 343 346 347 345 348 353
83 86 108 337 347 78 348 320 312 317 321 311 304 320 331 328 323 312 292 285 14 360 349 341 333 334 333 331 335 338 336 333 324 329 337 339 339 338 337 337 336 333 334 332 329 331 335 334 331 330 330 332 337 342 346 348 343 339 339 341 339 335 333 333 334 335 336 337 338 340 340 337 335 335 337 339 340 341 343 346 348 352 355 353 355 3
44 45 109 78 338 39 29 320 315 314 288 198 287 319 339 334 326 323 306 278 1 356 347 342 335 333 332 333 339 340 338 335 319 324 332 335 335 335 336 336 332 330 332 335 335 336 337 334 331 332 333 337 342 346 347 344 340 339 340 339 336 333 334 335 336 337 336 337 339 341 341 340 339 339 340 341 342 344 347 350 355 359 1 1 3 10
26 10 47 35 305 263 275 260 247 255 249 308 332 331 340 332 323 332 330 322 349 348 342 338 333 330 332 337 339 339 335 325 314 320 328 331 331 334 335 332 331 332 335 340 340 336 331 329 330 333 337 341 344 345 343 341 341 341 337 335 334 335 336 337 337 337 337 338 341 343 343 342 342 342 344 344 344 348 353 356 359 2 6 11 16 21
356 336 10 0 258 246 230 234 272 260 240 315 323 327 341 336 330 21 328 316 334 337 334 333 329 327 334 339 337 331 321 318 317 319 325 329 331 333 331 329 333 337 338 339 339 331 326 328 332 335 340 343 343 342 342 341 340 338 335 334 336 337 338 338 337 337 339 340 343 344 344 345 346 346 348 349 348 353 358 0 0 5 13 20 25 27
329 313 330 299 258 267 215 220 296 272 200 329 329 341 4 358 336 311 314 316 326 329 328 329 327 327 334 335 331 325 320 321 323 324 327 330 330 329 329 333 338 341 338 340 340 332 329 331 334 337 341 343 342 343 343 337 332 334 335 335 337 338 339 339 339 339 341 342 344 346 347 349 351 351 352 355 355 357 1 4 8 14 20 25 29 30
202 276 310 282 241 311 306 309 326 285 294 2 349 352 22 18 312 309 320 321 324 326 326 327 326 328 332 330 327 325 323 324 327 329 329 330 328 327 332 338 342 336 336 340 338 329 330 334 336 339 341 341 342 344 342 334 330 334 336 336 338 340 340 341 341 341 342 345 348 349 350 352 355 356 358 0 1 1 4 9 16 22 26 29 30 30
212 164 265 278 239 18 340 143 228 270 311 1 5 355 14 350 324 325 325 320 322 326 327 327 327 327 329 328 325 325 326 326 328 329 330 329 328 330 336 343 341 334 337 341 332 328 333 337 338 339 341 342 344 342 337 334 334 336 337 338 341 343 342 342 342 342 345 349 351 352 354 356 359 1 4 5 4 6 9 13 19 26 30 32 30 27
215 186 203 238 212 215 241 246 269 287 303 332 346 337 328 325 324 327 324 318 320 324 325 327 327 325 327 328 326 325 327 327 327 328 328 328 330 334 339 343 339 334 339 341 332 330 336 338 338 340 342 345 346 339 334 335 336 337 339 342 344 344 343 343 343 344 349 352 353 355 356 358 2 7 9 8 7 9 11 14 21 27 29 30 30 26
213 179 162 178 244 263 259 258 271 287 297 310 323 326 319 317 321 325 325 325 324 321 321 325 325 324 326 328 327 326 328 328 327 328 329 330 333 337 340 341 339 336 339 339 334 334 337 337 338 341 343 344 344 339 335 335 337 339 341 345 346 344 344 344 344 347 351 354 356 358 360 1 4 9 11 11 11 13 14 14 19 24 26 29 30 25
227 182 174 203 279 302 276 262 273 291 297 304 315 314 306 316 323 323 324 326 322 318 320 323 325 326 327 329 329 328 329 329 328 329 332 334 336 339 341 341 339 338 339 338 336 337 337 337 339 344 343 339 340 341 336 333 338 343 345 346 346 344 345 346 346 348 352 355 357 0 4 6 6 7 10 12 12 12 14 16 19 24 26 25 23 21
185 174 201 224 204 221 266 276 286 294 292 293 300 300 306 319 323 320 322 324 319 318 322 324 327 329 329 331 332 330 329 330 330 331 334 337 338 340 342 340 338 339 339 338 338 338 337 338 341 345 341 336 339 342 338 335 341 348 349 347 346 346 347 347 347 350 354 357 359 2 6 9 7 5 7 11 13 11 9 12 17 26 29 24 16 12
164 168 200 215 235 256 266 276 294 304 293 264 272 304 316 323 320 317 321 324 322 323 325 326 329 332 332 333 334 332 329 331 333 334 336 338 340 343 343 339 338 339 339 338 338 339 339 341 344 345 338 334 338 343 341 340 345 351 350 349 347 347 348 348 348 351 356 358 1 4 7 9 7 6 7 10 14 18 17 12 12 17 24 25 20 16
170 194 197 179 302 279 268 290 314 313 287 276 298 314 319 320 317 318 325 329 327 326 328 329 331 333 334 336 337 334 331 334 337 339 338 340 343 345 343 340 339 340 340 339 339 340 342 344 346 344 336 334 338 343 342 343 348 351 351 350 348 349 350 349 348 352 356 359 2 6 6 6 5 6 8 10 12 17 24 31 23 17 17 15 19 31
202 214 198 189 251 267 280 295 298 278 275 292 309 317 316 314 316 322 328 329 326 327 331 333 333 333 336 339 340 339 337 338 341 342 341 343 345 345 345 343 341 340 340 339 339 341 344 345 346 343 336 336 340 342 342 344 349 352 352 351 349 350 352 351 350 353 356 359 2 5 5 3 2 4 7 10 13 13 14 16 37 66 28 14 10 36